Meteopurmerend
purmerend
Purmerend - Baaienwijk



My webcam  My webcam


Onweer radar Meer informatie blitzortung!


Regen radar Meer informatie rain snow radar


Bezoek onze andere website:

CandyAppleRed WebdesignWebdesign Purmerend Candy Apple Red

MeteopurmerendBlog

Template documentation
and downloads



Het weer levert geen direct gevaar op.    Er zijn geen waarschuwingen afgegeven.

15 daagse weersverwachting Gaillimh (IE)

  • Overzicht
  • Per uur
  • 15 dagen
  • Extra
  • Vergelijk
  • Kaarten
  • Dagkaart
  • Meer »
  • Info
  • Statistieken
  • Directe link
    Temp 6h Neerslag Wind  
 05:49     21:37    Daglengte: 15:48 Vandaag
07:00
14°
3.2 mm
6
13:00
16°
2.9 mm
7
19:00
16°
4.9 mm
7
 05:51     21:35    Daglengte: 15:44 Morgen
01:00
13°
 
5
07:00
14°
 
5
13:00
17°
 
5
19:00
16°
 
4
 05:52     21:34    Daglengte: 15:42 Vrijdag 30 Jul
01:00
15°
 
3
07:00
15°
 
4
13:00
17°
17.9 mm
6
19:00
17°
4.1 mm
4
 05:54     21:32    Daglengte: 15:38 Zaterdag 31 Jul
01:00
15°
 
3
Locatie info
Region: Connaught
Latitude: 53.2719°N
Longitude: -9.0489°E
6 masl
Temp/Neerslag /Baro Onweer/Dauwpunt
    Temp Baro 1h Neerslag Dauwpunt Wind UV Bewolking  
 05:49     21:37    Daglengte: 15:48 Vandaag
07:00
14°
1004.5 hPa
61%
11.9°
6
Windvlaag: -2.3 m/s
19%
08:00
14°
1004.8 hPa
33%
11.4°
5
Windvlaag: -3.2 m/s
20%
09:00
14°
1005.0 hPa
74%
10.8°
5
Windvlaag: -0.8 m/s
47%
10:00
15°
1005.1 hPa
82%
9.6°
6
Windvlaag: 0.4 m/s
9%
11:00
16°
1005.0 hPa 1.5 mm
82%
9.5°
7
Windvlaag: -0.8 m/s
12%
12:00
16°
1005.1 hPa 1.4 mm
82%
9.9°
7
Windvlaag: -0.8 m/s
15%
13:00
16°
1005.1 hPa
73%
9.4°
7
Windvlaag: -0.6 m/s
14%
14:00
17°
1005.3 hPa 1.5 mm
69%
10.1°
8
Windvlaag: -0.3 m/s
24%
15:00
17°
1005.5 hPa
68%
10.4°
8
Windvlaag: -0.9 m/s
39%
16:00
17°
1005.8 hPa 1.7 mm
63%
10.0°
8
Windvlaag: -1.4 m/s
14%
17:00
17°
1006.2 hPa 1.7 mm
72%
9.5°
8
Windvlaag: -2.3 m/s
39%
18:00
17°
1006.8 hPa
73%
9.1°
7
Windvlaag: -2.5 m/s
34%
19:00
16°
1007.1 hPa
67%
9.0°
7
Windvlaag: -2.6 m/s
12%
20:00
15°
1007.5 hPa
60%
9.8°
7
Windvlaag: -1.8 m/s
11%
21:00
15°
1008.0 hPa
15%
9.0°
6
Windvlaag: -1.1 m/s
14%
22:00
14°
1008.5 hPa
50%
9.1°
5
Windvlaag: -0.7 m/s
16%
23:00
14°
1008.9 hPa
15%
9.3°
5
Windvlaag: -1.1 m/s
6%
 05:51     21:35    Daglengte: 15:44 Morgen
00:00
13°
1008.9 hPa
16%
9.4°
5
Windvlaag: 0.4 m/s
5%
01:00
13°
1009.0 hPa
15%
9.2°
5
Windvlaag: 2 m/s
5%
02:00
13°
1009.0 hPa
15%
8.9°
5
Windvlaag: 2.5 m/s
5%
03:00
13°
1009.0 hPa
16%
9.2°
5
Windvlaag: 2.3 m/s
8%
04:00
13°
1008.9 hPa
16%
9.1°
5
Windvlaag: 2.2 m/s
5%
05:00
13°
1008.9 hPa
16%
9.6°
5
Windvlaag: 2.3 m/s
9%
06:00
13°
1008.9 hPa
16%
9.9°
5
Windvlaag: 1.4 m/s
10%
07:00
14°
1009.1 hPa
16%
10.4°
5
Windvlaag: 1.4 m/s
9%
08:00
14°
1009.3 hPa
16%
10.7°
5
Windvlaag: 1.3 m/s
9%
09:00
15°
1009.7 hPa
16%
10.8°
5
Windvlaag: 0.2 m/s
9%
10:00
16°
1009.8 hPa
53%
10.6°
5
Windvlaag: -0.6 m/s
9%
11:00
16°
1009.9 hPa
54%
11.4°
5
Windvlaag: -0.7 m/s
13%
12:00
17°
1009.8 hPa
56%
11.7°
5
Windvlaag: -0.3 m/s
27%
13:00
17°
1009.8 hPa
58%
11.6°
5
Windvlaag: -1 m/s
58%
14:00
17°
1009.7 hPa
53%
11.6°
5
Windvlaag: -1.2 m/s
22%
15:00
18°
1009.5 hPa
53%
11.7°
5
Windvlaag: -1.2 m/s
28%
16:00
18°
1009.4 hPa
55%
11.4°
4
Windvlaag: -1.5 m/s
27%
17:00
18°
1009.2 hPa
60%
11.2°
5
Windvlaag: -1.6 m/s
21%
18:00
17°
1009.1 hPa
20%
10.7°
5
Windvlaag: -1.2 m/s
25%
19:00
16°
1009.1 hPa
28%
10.3°
4
Windvlaag: 0.5 m/s
50%
20:00
16°
1009.1 hPa
74%
10.6°
4
Windvlaag: 0.7 m/s
52%
21:00
15°
1009.0 hPa
82%
11.1°
4
Windvlaag: -2.6 m/s
64%
22:00
15°
1009.1 hPa
82%
11.2°
3
Windvlaag: -1.8 m/s
67%
23:00
15°
1009.0 hPa
82%
11.8°
3
Windvlaag: -1.1 m/s
63%
 05:52     21:34    Daglengte: 15:42 Vrijdag 30 Jul
00:00
15°
1009.0 hPa
82%
12.0°
3
Windvlaag: -1.1 m/s
69%
01:00
15°
1008.7 hPa
82%
12.1°
3
Windvlaag: -1.7 m/s
59%
02:00
15°
1008.6 hPa
82%
12.4°
3
Windvlaag: -1.4 m/s
60%
03:00
15°
1008.5 hPa
82%
12.5°
3
Windvlaag: -2.1 m/s
62%
04:00
15°
1007.9 hPa
96%
13.3°
4
Windvlaag: -2.1 m/s
84%
05:00
15°
1008.0 hPa
26%
13.3°
4
Windvlaag: -1.5 m/s
94%
06:00
15°
1008.2 hPa
27%
13.1°
4
Windvlaag: -1 m/s
63%
07:00
15°
1008.5 hPa
88%
12.8°
4
Windvlaag: -1.5 m/s
78%
08:00
15°
1008.8 hPa
91%
12.8°
4
Windvlaag: -1.7 m/s
83%
09:00
15°
1009.1 hPa 3.3 mm
94%
12.6°
5
Windvlaag: -1.9 m/s
76%
10:00
15°
1009.4 hPa 3.6 mm
100%
12.8°
5
Windvlaag: -1.3 m/s
88%
11:00
16°
1009.5 hPa 3.7 mm
100%
13.2°
5
Windvlaag: 0.6 m/s
87%
12:00
16°
1009.5 hPa 3.6 mm
95%
13.4°
6
Windvlaag: 0.7 m/s
80%
13:00
17°
1009.4 hPa 3.7 mm
87%
14.6°
6
Windvlaag: 0.6 m/s
75%
14:00
17°
1009.3 hPa
31%
15.8°
6
Windvlaag: 0.1 m/s
88%
15:00
17°
1009.3 hPa 4.1 mm
26%
15.9°
5
Windvlaag: 0.8 m/s
83%
16:00
17°
1009.3 hPa
70%
16.1°
5
Windvlaag: -0.1 m/s
56%
17:00
18°
1009.3 hPa
64%
16.2°
5
Windvlaag: -0.4 m/s
74%
18:00
17°
1009.3 hPa
67%
15.5°
5
Windvlaag: 0.1 m/s
73%
19:00
17°
1009.4 hPa
62%
15.4°
4
Windvlaag: 0.4 m/s
72%
20:00
17°
1009.5 hPa
21%
15.4°
4
Windvlaag: 0.6 m/s
60%
21:00
16°
1009.6 hPa
21%
15.2°
4
Windvlaag: -0.9 m/s
61%
22:00
16°
1009.8 hPa
22%
14.8°
4
Windvlaag: -0.7 m/s
76%
23:00
15°
1009.7 hPa
25%
14.5°
4
Windvlaag: 0.3 m/s
88%
 05:54     21:32    Daglengte: 15:38 Zaterdag 31 Jul
00:00
15°
1009.7 hPa
76%
14.3°
3
Windvlaag: 0.7 m/s
69%
01:00
15°
1009.4 hPa
23%
14.2°
3
Windvlaag: 0.3 m/s
77%
02:00
16°
1008.8 hPa
23%
15.3°
3
Windvlaag: 6.8 m/s
76%
03:00
16°
1008.7 hPa
72%
15.2°
2
Windvlaag: 6.6 m/s
74%
04:00
16°
1008.5 hPa
80%
15.1°
2
Windvlaag: 6.7 m/s
70%
05:00
16°
1008.4 hPa
76%
14.9°
2
Windvlaag: 6.6 m/s
81%
06:00
15°
1008.4 hPa
30%
14.9°
2
Windvlaag: 6.3 m/s
73%
Temp/Neerslag /Baro Onweer/Dauwpunt
    Temp Baro Neerslag Dauwpunt Wind Bewolking  
 05:49     21:37    Daglengte: 15:48 Vandaag
07:00
14°
1004.5 hPa 3.2 mm 11.9°
6
19%
10:00
15°
1005.1 hPa   9.6°
6
9%
13:00
16°
1005.1 hPa 2.9 mm 9.4°
7
14%
16:00
17°
1005.8 hPa 3.2 mm 10.0°
8
14%
19:00
16°
1007.1 hPa 1.7 mm 9.0°
7
12%
22:00
14°
1008.5 hPa   9.1°
5
16%
 05:51     21:35    Daglengte: 15:44 Morgen
01:00
13°
1009.0 hPa   9.2°
5
5%
04:00
13°
1008.9 hPa   9.1°
5
5%
07:00
14°
1009.1 hPa   10.4°
5
9%
10:00
16°
1009.8 hPa   10.6°
5
9%
13:00
17°
1009.8 hPa   11.6°
5
58%
16:00
18°
1009.4 hPa   11.4°
4
27%
19:00
16°
1009.1 hPa   10.3°
4
50%
22:00
15°
1009.1 hPa   11.2°
3
67%
 05:52     21:34    Daglengte: 15:42 Vrijdag 30 Jul
01:00
15°
1008.7 hPa   12.1°
3
59%
04:00
15°
1007.9 hPa   13.3°
4
84%
07:00
15°
1008.5 hPa   12.8°
4
78%
10:00
15°
1009.4 hPa 6.9 mm 12.8°
5
88%
13:00
17°
1009.4 hPa 11.0 mm 14.6°
6
75%
16:00
17°
1009.3 hPa 4.1 mm 16.1°
5
56%
19:00
17°
1009.4 hPa   15.4°
4
72%
22:00
16°
1009.8 hPa   14.8°
4
76%
 05:54     21:32    Daglengte: 15:38 Zaterdag 31 Jul
01:00
15°
1009.4 hPa   14.2°
3
77%
04:00
16°
1008.5 hPa   15.1°
2
70%
07:00
15°
1008.8 hPa   14.7°
2
74%
10:00
16°
1010.8 hPa 13.6 mm 13.3°
2
1%
13:00
18°
1011.1 hPa 13.8 mm 13.6°
5
1%
16:00
19°
1011.0 hPa 13.9 mm 13.0°
4
1%
19:00
18°
1011.5 hPa 13.9 mm 12.3°
6
1%
22:00
13°
1013.1 hPa 13.9 mm 9.9°
4
0%
 05:56     21:30    Daglengte: 15:34 Zondag 01 Aug
01:00
12°
1013.3 hPa 13.9 mm 9.6°
3
0%
04:00
11°
1013.6 hPa 13.9 mm 9.1°
3
0%
07:00
11°
1014.1 hPa 13.9 mm 9.2°
2
0%
10:00
15°
1014.2 hPa 13.9 mm 10.5°
5
0%
13:00
16°
1015.0 hPa 14.0 mm 10.2°
4
0%
16:00
17°
1015.1 hPa 14.0 mm 10.5°
4
1%
19:00
18°
1014.9 hPa 14.0 mm 11.0°
4
1%
22:00
13°
1016.0 hPa 14.0 mm 10.4°
4
1%
 05:57     21:28    Daglengte: 15:31 Maandag 02 Aug
01:00
12°
1016.6 hPa 14.0 mm 10.1°
4
1%
04:00
13°
1016.6 hPa 14.0 mm 9.7°
2
0%
07:00
13°
1016.6 hPa 14.0 mm 9.7°
1
1%
10:00
15°
1016.6 hPa 14.0 mm 10.4°
1
1%
13:00
17°
1016.4 hPa 14.0 mm 10.8°
2
1%
16:00
17°
1015.5 hPa 14.0 mm 11.7°
2
1%
19:00
17°
1014.6 hPa 14.1 mm 12.1°
3
1%
22:00
15°
1014.3 hPa 14.1 mm 12.0°
2
1%
 05:59     21:27    Daglengte: 15:28 Dinsdag 03 Aug
01:00
15°
1013.4 hPa 14.1 mm 11.2°
3
1%
04:00
14°
1011.8 hPa 14.2 mm 11.0°
3
1%
07:00
14°
1010.5 hPa 14.2 mm 11.2°
3
1%
10:00
15°
1009.4 hPa 15.2 mm 12.0°
4
1%
13:00
16°
1008.0 hPa 15.9 mm 12.5°
4
1%
16:00
15°
1007.3 hPa 16.7 mm 12.9°
4
1%
19:00
15°
1005.7 hPa 17.3 mm 13.2°
2
1%
22:00
15°
1005.2 hPa 17.5 mm 12.9°
3
1%
 06:01     21:25    Daglengte: 15:24 Woensdag 04 Aug
01:00
13°
1004.6 hPa 17.6 mm 11.8°
2
1%
04:00
13°
1003.6 hPa   11.4°
2
0%
07:00
13°
1003.9 hPa 35.3 mm 12.0°
2
0%
13:00
17°
1004.2 hPa 36.3 mm 13.1°
3
1%
19:00
17°
1004.0 hPa 39.2 mm 12.1°
6
1%
 06:02     21:23    Daglengte: 15:21 Donderdag 05 Aug
01:00
14°
1003.5 hPa 40.9 mm 11.6°
4
1%
07:00
14°
1001.5 hPa 47.1 mm 11.8°
4
1%
13:00
18°
1000.8 hPa 51.1 mm 12.1°
7
1%
19:00
17°
999.4 hPa 52.9 mm 12.0°
4
1%
 06:04     21:21    Daglengte: 15:17 Vrijdag 06 Aug
01:00
13°
998.9 hPa 53.6 mm 11.6°
4
1%
07:00
13°
1000.5 hPa 53.6 mm 10.2°
6
1%
13:00
16°
1003.0 hPa 53.8 mm 8.6°
6
1%
19:00
16°
1006.3 hPa 54.1 mm 8.9°
6
1%
 06:06     21:19    Daglengte: 15:13 Zaterdag 07 Aug
01:00
12°
1007.6 hPa 1.5 mm 10.6°
2
67%
07:00
13°
1007.0 hPa 0.8 mm 10.8°
3
71%
13:00
17°
1007.3 hPa 1.1 mm 11.8°
4
77%
19:00
16°
1007.1 hPa 1.6 mm 11.9°
4
70%
 06:07     21:17    Daglengte: 15:10 Zondag 08 Aug
01:00
13°
1008.1 hPa 0.9 mm 11.0°
3
55%
07:00
12°
1007.8 hPa 0.2 mm 10.8°
3
60%
13:00
17°
1008.9 hPa 1.3 mm 11.7°
4
60%
19:00
16°
1009.2 hPa 1.9 mm 11.7°
3
53%
 06:09     21:15    Daglengte: 15:06 Maandag 09 Aug
01:00
12°
1010.5 hPa 0.7 mm 10.8°
2
50%
07:00
12°
1010.9 hPa 0.6 mm 10.9°
2
53%
13:00
18°
1013.3 hPa 0.6 mm 11.4°
4
63%
19:00
16°
1014.4 hPa   11.7°
3
63%
 06:11     21:13    Daglengte: 15:02 Dinsdag 10 Aug
01:00
13°
1016.2 hPa 1.5 mm 11.0°
2
63%
07:00
12°
1016.7 hPa 0.7 mm 11.0°
2
70%
13:00
18°
1017.9 hPa 0.7 mm 12.2°
4
71%
19:00
17°
1017.8 hPa 0.8 mm 12.6°
3
69%
 06:12     21:11    Daglengte: 14:59 Woensdag 11 Aug
01:00
13°
1018.3 hPa 0.4 mm 11.6°
2
66%
07:00
13°
1016.9 hPa 0.3 mm 11.4°
2
70%
13:00
18°
1017.0 hPa 0.7 mm 12.8°
4
73%
19:00
17°
1017.0 hPa 0.9 mm 12.8°
4
76%
 06:14     21:09    Daglengte: 14:55 Donderdag 12 Aug
01:00
13°
1018.2 hPa 0.3 mm 11.5°
2
62%
  CAPE Lifted Index Hail Supercell Tornado SRH 3km CL BTM PRES CL TOP PRES Swiss DWD icon SMHI TS
 05:49     21:37    Daglengte: 15:48 Vandaag
07:00 48 J/kg 1.4 K 0 % 0 % 0 % 0 m²/s² 0 0 1.61 2
08:00 27 J/kg 0.8 K 0 % 0 % 0 % 0 m²/s² 0 0 1.13 2
09:00 224 J/kg -0.8 K 0 % 0 % 0 % 0 m²/s² 0 0 0.46 2
10:00 366 J/kg -1.3 K 0 % 0 % 0 % 0 m²/s² 0 0 0.32 2
11:00 370 J/kg -1.4 K 0 % 0 % 0 % 0 m²/s² 0 0 -0.08 2
12:00 382 J/kg -1.4 K 0 % 0 % 0 % 0 m²/s² 0 0 0.58 2
13:00 307 J/kg -1.1 K 0 % 0 % 0 % 0 m²/s² 0 0 1.21 2
14:00 356 J/kg -1.3 K 0 % 0 % 0 % 0 m²/s² 0 0 0.5 3
15:00 291 J/kg -0.9 K 0 % 0 % 0 % 0 m²/s² 0 0 1.41 3
16:00 291 J/kg -1.0 K 0 % 0 % 0 % 0 m²/s² 0 0 0.92 80
17:00 225 J/kg -0.3 K 0 % 0 % 0 % 0 m²/s² 0 0 1.5 3
18:00 169 J/kg 0.0 K 0 % 0 % 0 % 0 m²/s² 0 0 2.34 3
19:00 163 J/kg -0.1 K 0 % 0 % 0 % 0 m²/s² 0 0 1.85 2
20:00 134 J/kg 0.3 K 0 % 0 % 0 % 0 m²/s² 0 0 2.01 2
21:00 118 J/kg 0.5 K 0 % 0 % 0 % 0 m²/s² 0 0 1.94 1
22:00 77 J/kg 0.8 K 0 % 0 % 0 % 0 m²/s² 0 0 2.57 0
23:00 75 J/kg 0.9 K 0 % 0 % 0 % 0 m²/s² 0 0 2.88 0
 05:51     21:35    Daglengte: 15:44 Morgen
00:00 61 J/kg 2.0 K 0 % 0 % 0 % 0 m²/s² 0 0 4.73 0
01:00 33 J/kg 3.2 K 0 % 0 % 0 % 0 m²/s² 0 0 6.89 0
02:00 12 J/kg 4.0 K 0 % 0 % 0 % 0 m²/s² 0 0 6.46 1
03:00 14 J/kg 4.2 K 0 % 0 % 0 % 0 m²/s² 0 0 5.61 0
04:00 10 J/kg 5.3 K 0 % 0 % 0 % 0 m²/s² 0 0 6.11 0
05:00 4 J/kg 5.6 K 0 % 0 % 0 % 0 m²/s² 0 0 6.53 0
06:00 5 J/kg 5.8 K 0 % 0 % 0 % 0 m²/s² 0 0 6.58 0
07:00 0 J/kg 5.4 K 0 % 0 % 0 % 0 m²/s² 0 0 6 1
08:00 2 J/kg 4.5 K 0 % 0 % 0 % 0 m²/s² 0 0 4.74 1
09:00 1 J/kg 3.9 K 0 % 0 % 0 % 0 m²/s² 0 0 4.02 2
10:00 10 J/kg 3.9 K 0 % 0 % 0 % 0 m²/s² 0 0 4.02 2
11:00 19 J/kg 3.6 K 0 % 0 % 0 % 0 m²/s² 0 0 3.9 3
12:00 21 J/kg 3.5 K 0 % 0 % 0 % 0 m²/s² 0 0 3.92 3
13:00 16 J/kg 3.3 K 0 % 0 % 0 % 0 m²/s² 0 0 3.93 3
14:00 25 J/kg 3.0 K 0 % 0 % 0 % 0 m²/s² 0 0 3.63 2
15:00 44 J/kg 2.4 K 0 % 0 % 0 % 0 m²/s² 0 0 3 3
16:00 41 J/kg 2.5 K 0 % 0 % 0 % 0 m²/s² 0 0 3.04 3
17:00 44 J/kg 2.3 K 0 % 0 % 0 % 0 m²/s² 0 0 2.81 2
18:00 32 J/kg 2.5 K 0 % 0 % 0 % 0 m²/s² 0 0 3.1 2
19:00 30 J/kg 2.2 K 0 % 0 % 0 % 0 m²/s² 0 0 3.16 3
20:00 34 J/kg 1.8 K 0 % 0 % 0 % 0 m²/s² 0 0 3.33 61
21:00 42 J/kg 1.4 K 0 % 0 % 0 % 0 m²/s² 0 0 3.05 61
22:00 42 J/kg 1.3 K 0 % 0 % 0 % 0 m²/s² 0 0 2.8 61
23:00 53 J/kg 1.5 K 0 % 0 % 0 % 0 m²/s² 0 0 2.88 61
 05:52     21:34    Daglengte: 15:42 Vrijdag 30 Jul
00:00 39 J/kg 1.8 K 0 % 0 % 0 % 0 m²/s² 0 0 3.06 61
01:00 27 J/kg 2.2 K 0 % 0 % 0 % 0 m²/s² 0 0 3.31 61
02:00 22 J/kg 2.5 K 0 % 0 % 0 % 0 m²/s² 0 0 3.67 61
03:00 31 J/kg 2.6 K 0 % 0 % 0 % 0 m²/s² 0 0 3.83 61
04:00 46 J/kg 3.1 K 0 % 0 % 0 % 0 m²/s² 0 0 3.97 3
05:00 38 J/kg 3.7 K 0 % 0 % 0 % 0 m²/s² 0 0 4.39 3
06:00 7 J/kg 4.6 K 0 % 0 % 0 % 0 m²/s² 0 0 5.2 3
07:00 8 J/kg 4.7 K 0 % 0 % 0 % 0 m²/s² 0 0 5 3
08:00 35 J/kg 4.7 K 0 % 0 % 0 % 0 m²/s² 0 0 4.82 3
09:00 58 J/kg 4.8 K 0 % 0 % 0 % 0 m²/s² 0 0 4.98 3
10:00 57 J/kg 5.5 K 0 % 0 % 0 % 0 m²/s² 0 0 5.68 80
11:00 53 J/kg 5.5 K 0 % 0 % 0 % 0 m²/s² 0 0 5.68 80
12:00 19 J/kg 5.4 K 0 % 0 % 0 % 0 m²/s² 0 0 5.58 80
13:00 23 J/kg 4.8 K 0 % 0 % 0 % 0 m²/s² 0 0 4.92 80
14:00 58 J/kg 4.0 K 0 % 0 % 0 % 0 m²/s² 0 0 4.09 3
15:00 44 J/kg 3.8 K 0 % 0 % 0 % 0 m²/s² 0 0 3.83 3
16:00 44 J/kg 3.5 K 0 % 0 % 0 % 0 m²/s² 0 0 3.62 2
17:00 31 J/kg 3.4 K 0 % 0 % 0 % 0 m²/s² 0 0 3.61 2
18:00 21 J/kg 3.2 K 0 % 0 % 0 % 0 m²/s² 0 0 3.59 3
19:00 23 J/kg 3.0 K 0 % 0 % 0 % 0 m²/s² 0 0 3.6 1
20:00 13 J/kg 3.1 K 0 % 0 % 0 % 0 m²/s² 0 0 4.3 2
21:00 4 J/kg 3.0 K 0 % 0 % 0 % 0 m²/s² 0 0 4.83 3
22:00 4 J/kg 3.5 K 0 % 0 % 0 % 0 m²/s² 0 0 5.72 3
23:00 15 J/kg 3.8 K 0 % 0 % 0 % 0 m²/s² 0 0 6.14 3
 05:54     21:32    Daglengte: 15:38 Zaterdag 31 Jul
00:00 21 J/kg 3.9 K 0 % 0 % 0 % 0 m²/s² 0 0 6.24 3
01:00 12 J/kg 4.2 K 0 % 0 % 0 % 0 m²/s² 0 0 6.48 3
02:00 3 J/kg 4.5 K 0 % 0 % 0 % 0 m²/s² 0 0 6.72 3
03:00 0 J/kg 4.6 K 0 % 0 % 0 % 0 m²/s² 0 0 6.82 3
04:00 4 J/kg 4.7 K 0 % 0 % 0 % 0 m²/s² 0 0 6.83 3
05:00 10 J/kg 4.4 K 0 % 0 % 0 % 0 m²/s² 0 0 6.68 3
06:00 13 J/kg 4.3 K 0 % 0 % 0 % 0 m²/s² 0 0 6.73 3
Temp Baro Wind Neerslag
  EWN Forecast EWN WRFDA DWD ICON FMI HIRLAM MET Norway GFS
 05:49     21:37    Daglengte: 15:48 Vandaag
07:00 13.6° 1004.5 hPa 5.5 m/s 3.2 mm 11.7° 1004.6 hPa 3.9 m/s 7.7 mm 14.1° 1005.2 hPa 6.8 m/s 3.2 mm 13.8° 1003.9 hPa 3.3 m/s 0.0 mm 12.9° 1004.0 hPa 5.6 m/s
10:00 15.0° 1005.1 hPa 6.2 m/s 0.0 mm 15.0° 1004.3 hPa 6.0 m/s 18.8 mm 14.9° 1005.8 hPa 7.0 m/s 0.0 mm 15.4° 1004.7 hPa 6.2 m/s 0.0 mm 14.7° 1005.2 hPa 6.6 m/s
13:00 16.3° 1005.1 hPa 7.3 m/s 2.9 mm 15.6° 1004.6 hPa 7.6 m/s 19.8 mm 16.3° 1006.0 hPa 7.7 m/s 0.4 mm 17.2° 1004.7 hPa 7.2 m/s 0.0 mm 15.5° 1005.5 hPa 8.7 m/s
16:00 17.0° 1005.8 hPa 7.7 m/s 3.2 mm 16.6° 1005.0 hPa 7.6 m/s 21.8 mm 16.9° 1006.7 hPa 7.6 m/s 0.4 mm 17.3° 1005.6 hPa 8.7 m/s 0.0 mm 16.4° 1005.8 hPa 8.4 m/s
19:00 16.0° 1007.1 hPa 7.1 m/s 1.7 mm 15.9° 1005.6 hPa 8.0 m/s 22.8 mm 15.9° 1007.3 hPa 7.0 m/s 0.3 mm 16.9° 1007.5 hPa 7.1 m/s 0.0 mm 15.3° 1006.4 hPa 8.0 m/s
22:00 14.2° 1008.5 hPa 5.0 m/s 0.0 mm 11.9° 1006.9 hPa 4.4 m/s 22.8 mm 14.3° 1008.6 hPa 5.4 m/s 0.0 mm 15.1° 1009.5 hPa 5.1 m/s 0.0 mm 12.9° 1007.8 hPa 5.9 m/s
 05:51     21:35    Daglengte: 15:44 Morgen
01:00 13.4° 1009.0 hPa 5.0 m/s 0.0 mm 11.9° 1007.2 hPa 5.9 m/s 22.9 mm 13.6° 1009.1 hPa 5.0 m/s 0.0 mm 14.6° 1009.9 hPa 5.2 m/s 0.0 mm 12.9° 1008.1 hPa 7.1 m/s
04:00 13.2° 1008.9 hPa 5.2 m/s 0.0 mm 11.2° 1006.9 hPa 5.4 m/s 22.9 mm 13.4° 1009.0 hPa 5.2 m/s 0.0 mm 14.2° 1009.9 hPa 5.5 m/s 0.0 mm 13.4° 1007.8 hPa 7.4 m/s
07:00 13.6° 1009.1 hPa 5.1 m/s 0.0 mm 12.7° 1007.2 hPa 6.8 m/s 22.9 mm 13.8° 1009.0 hPa 5.6 m/s 0.0 mm 14.5° 1010.9 hPa 5.0 m/s 0.0 mm 14.5° 1008.0 hPa 8.1 m/s
10:00 15.7° 1009.8 hPa 5.2 m/s 0.0 mm 13.6° 1008.6 hPa 6.4 m/s 24.3 mm 15.9° 1009.6 hPa 5.7 m/s 0.0 mm 15.5° 1012.2 hPa 5.0 m/s 0.0 mm 14.5° 1008.8 hPa 7.7 m/s
13:00 16.7° 1009.8 hPa 4.7 m/s 0.0 mm 14.5° 1009.3 hPa 5.3 m/s 27.2 mm 17.2° 1009.3 hPa 5.4 m/s 0.2 mm 16.0° 1012.7 hPa 4.5 m/s 0.0 mm 15.1° 1009.5 hPa 4.4 m/s
16:00 17.6° 1009.4 hPa 4.4 m/s 0.0 mm 17.7° 1009.0 hPa 5.8 m/s 27.6 mm 17.6° 1009.0 hPa 5.5 m/s 0.2 mm 16.2° 1012.8 hPa 3.7 m/s 0.0 mm 17.7° 1009.2 hPa 4.8 m/s
19:00 16.4° 1009.1 hPa 4.3 m/s 0.0 mm 17.7° 1009.0 hPa 5.5 m/s 27.8 mm 16.2° 1008.6 hPa 5.7 m/s 0.0 mm 16.2° 1012.8 hPa 1.8 m/s 0.0 mm 17.2° 1009.3 hPa 4.8 m/s
22:00 15.2° 1009.1 hPa 3.1 m/s 0.0 mm 14.9° 1009.2 hPa 4.1 m/s 27.8 mm 14.6° 1008.5 hPa 4.2 m/s 1.8 mm 15.3° 1012.9 hPa 0.7 m/s 0.0 mm 15.2° 1009.6 hPa 4.2 m/s
 05:52     21:34    Daglengte: 15:42 Vrijdag 30 Jul
01:00 14.7° 1008.7 hPa 3.0 m/s 0.0 mm 14.2° 1009.5 hPa 3.1 m/s 27.9 mm 14.8° 1008.0 hPa 3.0 m/s 0.5 mm 14.6° 1012.4 hPa 2.4 m/s 0.0 mm 14.6° 1009.8 hPa 2.5 m/s
04:00 14.8° 1007.9 hPa 3.6 m/s 0.0 mm 13.8° 1009.3 hPa 3.6 m/s 27.9 mm 15.1° 1007.5 hPa 3.0 m/s 0.2 mm 14.5° 1009.6 hPa 3.1 m/s
07:00 14.8° 1008.5 hPa 4.3 m/s 0.0 mm 13.7° 1009.4 hPa 4.7 m/s 28.2 mm 15.3° 1008.3 hPa 3.2 m/s 0.0 mm 14.7° 1009.9 hPa 4.3 m/s
10:00 15.5° 1009.4 hPa 4.8 m/s 6.9 mm 14.4° 1009.8 hPa 6.6 m/s 28.7 mm 16.5° 1009.0 hPa 4.7 m/s 0.7 mm 16.0° 1010.5 hPa 4.3 m/s
13:00 16.6° 1009.4 hPa 5.6 m/s 11.0 mm 14.0° 1009.3 hPa 6.3 m/s 31.1 mm 17.1° 1009.4 hPa 5.9 m/s 1.0 mm 17.6° 1010.2 hPa 6.0 m/s
16:00 17.3° 1009.3 hPa 5.2 m/s 4.1 mm 14.5° 1008.8 hPa 4.9 m/s 35.8 mm 17.7° 1009.8 hPa 7.1 m/s 0.0 mm 14.4° 1011.0 hPa 6.4 m/s
19:00 16.8° 1009.4 hPa 4.4 m/s 0.0 mm 15.0° 1008.3 hPa 4.2 m/s 39.1 mm 17.5° 1009.7 hPa 5.8 m/s 0.1 mm 14.6° 1010.5 hPa 5.7 m/s
22:00 15.8° 1009.8 hPa 3.9 m/s 0.0 mm 14.7° 1008.6 hPa 4.2 m/s 39.8 mm 16.4° 1009.8 hPa 4.1 m/s 0.0 mm 14.9° 1010.2 hPa 5.8 m/s
 05:54     21:32    Daglengte: 15:38 Zaterdag 31 Jul
01:00 14.8° 1009.4 hPa 3.0 m/s 0.0 mm 14.5° 1009.0 hPa 3.0 m/s 40.2 mm 16.4° 1009.1 hPa 3.9 m/s 0.1 mm 15.1° 1010.0 hPa 4.6 m/s
04:00 15.8° 1008.5 hPa 1.9 m/s 0.0 mm 13.8° 1009.1 hPa 3.3 m/s 40.2 mm 16.3° 1008.4 hPa 1.5 m/s 0.1 mm 14.8° 1009.3 hPa 2.2 m/s
07:00 15.5° 1008.8 hPa 1.7 m/s 0.0 mm 14.4° 1009.4 hPa 4.2 m/s 40.2 mm 15.8° 1008.7 hPa 1.0 m/s 0.0 mm 14.1° 1009.8 hPa 1.5 m/s
10:00 16.0° 1010.8 hPa 2.4 m/s 13.6 mm 16.0° 1010.8 hPa 2.4 m/s 13.6 mm
13:00 17.6° 1011.1 hPa 4.7 m/s 13.8 mm 17.6° 1011.1 hPa 4.7 m/s 13.8 mm
16:00 19.2° 1011.0 hPa 3.6 m/s 13.9 mm 19.2° 1011.0 hPa 3.6 m/s 13.9 mm
19:00 17.6° 1011.5 hPa 6.0 m/s 13.9 mm 17.6° 1011.5 hPa 6.0 m/s 13.9 mm
22:00 13.2° 1013.1 hPa 3.9 m/s 13.9 mm 13.2° 1013.1 hPa 3.9 m/s 13.9 mm
 05:56     21:30    Daglengte: 15:34 Zondag 01 Aug
01:00 11.7° 1013.3 hPa 3.5 m/s 13.9 mm 11.7° 1013.3 hPa 3.5 m/s 13.9 mm
04:00 11.0° 1013.6 hPa 2.9 m/s 13.9 mm 11.0° 1013.6 hPa 2.9 m/s 13.9 mm
07:00 11.5° 1014.1 hPa 2.4 m/s 13.9 mm 11.5° 1014.1 hPa 2.4 m/s 13.9 mm
10:00 15.4° 1014.2 hPa 4.7 m/s 13.9 mm 15.4° 1014.2 hPa 4.7 m/s 13.9 mm
13:00 15.8° 1015.0 hPa 4.2 m/s 14.0 mm 15.9° 1015.0 hPa 4.2 m/s 14.0 mm
16:00 16.8° 1015.1 hPa 3.9 m/s 14.0 mm 16.8° 1015.1 hPa 3.9 m/s 14.0 mm
19:00 17.6° 1014.9 hPa 4.0 m/s 14.0 mm 17.6° 1014.9 hPa 4.0 m/s 14.0 mm
22:00 13.4° 1016.0 hPa 3.5 m/s 14.0 mm 13.4° 1016.0 hPa 3.5 m/s 14.0 mm
 05:57     21:28    Daglengte: 15:31 Maandag 02 Aug
01:00 11.8° 1016.6 hPa 3.6 m/s 14.0 mm 11.8° 1016.6 hPa 3.6 m/s 14.0 mm
04:00 12.8° 1016.6 hPa 2.3 m/s 14.0 mm 12.8° 1016.6 hPa 2.3 m/s 14.0 mm
07:00 13.0° 1016.6 hPa 1.0 m/s 14.0 mm 13.0° 1016.6 hPa 1.0 m/s 14.0 mm
10:00 14.5° 1016.6 hPa 0.6 m/s 14.0 mm 14.5° 1016.6 hPa 0.6 m/s 14.0 mm
13:00 16.9° 1016.4 hPa 1.6 m/s 14.0 mm 16.9° 1016.4 hPa 1.6 m/s 14.0 mm
16:00 16.7° 1015.5 hPa 2.2 m/s 14.0 mm 16.7° 1015.5 hPa 2.2 m/s 14.0 mm
19:00 17.1° 1014.6 hPa 2.5 m/s 14.1 mm 17.1° 1014.6 hPa 2.5 m/s 14.1 mm
22:00 15.2° 1014.3 hPa 2.4 m/s 14.1 mm 15.2° 1014.3 hPa 2.4 m/s 14.1 mm
 05:59     21:27    Daglengte: 15:28 Dinsdag 03 Aug
01:00 14.8° 1013.4 hPa 2.5 m/s 14.1 mm 14.8° 1013.4 hPa 2.5 m/s 14.1 mm
04:00 14.4° 1011.8 hPa 2.6 m/s 14.2 mm 14.4° 1011.8 hPa 2.6 m/s 14.2 mm
07:00 14.1° 1010.5 hPa 3.4 m/s 14.2 mm 14.1° 1010.5 hPa 3.4 m/s 14.2 mm
10:00 15.2° 1009.4 hPa 4.1 m/s 15.2 mm 15.2° 1009.4 hPa 4.1 m/s 15.2 mm
13:00 15.7° 1008.0 hPa 4.2 m/s 15.9 mm 15.7° 1008.0 hPa 4.2 m/s 15.9 mm
16:00 15.0° 1007.3 hPa 3.6 m/s 16.7 mm 15.0° 1007.3 hPa 3.6 m/s 16.7 mm
19:00 14.7° 1005.7 hPa 2.0 m/s 17.3 mm 14.7° 1005.7 hPa 2.0 m/s 17.3 mm
22:00 14.5° 1005.2 hPa 3.0 m/s 17.5 mm 14.5° 1005.2 hPa 3.0 m/s 17.5 mm
 06:01     21:25    Daglengte: 15:24 Woensdag 04 Aug
01:00 13.2° 1004.6 hPa 2.1 m/s 17.6 mm 13.2° 1004.6 hPa 2.1 m/s 17.6 mm
04:00 12.5° 1003.6 hPa 2.1 m/s 17.6 mm 12.5° 1003.6 hPa 2.1 m/s 17.6 mm
07:00 13.3° 1003.9 hPa 1.8 m/s 17.6 mm 13.3° 1003.9 hPa 1.8 m/s 17.6 mm
13:00 17.1° 1004.2 hPa 2.6 m/s 18.6 mm 17.1° 1004.2 hPa 2.6 m/s 18.6 mm
19:00 17.2° 1004.0 hPa 5.8 m/s 19.7 mm 17.2° 1004.0 hPa 5.8 m/s 19.7 mm
 06:02     21:23    Daglengte: 15:21 Donderdag 05 Aug
01:00 14.1° 1003.5 hPa 3.6 m/s 20.8 mm 14.1° 1003.5 hPa 3.6 m/s 20.8 mm
07:00 14.3° 1001.5 hPa 4.5 m/s 24.5 mm 14.3° 1001.5 hPa 4.5 m/s 24.5 mm
13:00 17.6° 1000.8 hPa 7.0 m/s 25.9 mm 17.6° 1000.8 hPa 7.0 m/s 25.9 mm
19:00 16.8° 999.4 hPa 3.9 m/s 26.5 mm 16.8° 999.4 hPa 3.9 m/s 26.5 mm
 06:04     21:21    Daglengte: 15:17 Vrijdag 06 Aug
01:00 12.9° 998.9 hPa 3.9 m/s 26.8 mm 12.9° 998.9 hPa 3.9 m/s 26.8 mm
07:00 13.0° 1000.5 hPa 5.5 m/s 26.8 mm 13.0° 1000.5 hPa 5.5 m/s 26.8 mm
13:00 16.0° 1003.0 hPa 5.7 m/s 26.9 mm 16.0° 1003.0 hPa 5.7 m/s 26.9 mm
19:00 15.6° 1006.3 hPa 6.2 m/s 27.1 mm 15.6° 1006.3 hPa 6.2 m/s 27.1 mm
 06:06     21:19    Daglengte: 15:13 Zaterdag 07 Aug
01:00 12.4° 1007.6 hPa 2.1 m/s 1.5 mm
07:00 12.6° 1007.0 hPa 2.5 m/s 0.8 mm
13:00 16.8° 1007.3 hPa 4.5 m/s 1.1 mm
19:00 15.9° 1007.1 hPa 4.1 m/s 1.6 mm
 06:07     21:17    Daglengte: 15:10 Zondag 08 Aug
01:00 12.6° 1008.1 hPa 2.7 m/s 0.9 mm
07:00 12.2° 1007.8 hPa 2.6 m/s 0.2 mm
13:00 17.1° 1008.9 hPa 4.0 m/s 1.3 mm
19:00 16.3° 1009.2 hPa 3.5 m/s 1.9 mm
 06:09     21:15    Daglengte: 15:06 Maandag 09 Aug
01:00 12.4° 1010.5 hPa 2.3 m/s 0.7 mm
07:00 12.2° 1010.9 hPa 2.4 m/s 0.6 mm
13:00 17.5° 1013.3 hPa 3.9 m/s 0.6 mm
19:00 16.5° 1014.4 hPa 3.4 m/s 0.0 mm
 06:11     21:13    Daglengte: 15:02 Dinsdag 10 Aug
01:00 12.6° 1016.2 hPa 2.2 m/s 1.5 mm
07:00 12.5° 1016.7 hPa 1.8 m/s 0.7 mm
13:00 17.7° 1017.9 hPa 3.7 m/s 0.7 mm
19:00 16.8° 1017.8 hPa 3.4 m/s 0.8 mm
 06:12     21:11    Daglengte: 14:59 Woensdag 11 Aug
01:00 13.0° 1018.3 hPa 2.4 m/s 0.4 mm
07:00 12.7° 1016.9 hPa 2.2 m/s 0.3 mm
13:00 17.7° 1017.0 hPa 3.8 m/s 0.7 mm
19:00 16.6° 1017.0 hPa 4.1 m/s 0.9 mm
 06:14     21:09    Daglengte: 14:55 Donderdag 12 Aug
01:00 13.0° 1018.2 hPa 2.2 m/s 0.3 mm
FMI Hirlam - 7.5 km EWN WRFDA - 12 km DWD ICON - 7 km GFS - 25 km Basiskaart






























































Updatetijd (Europe/Amsterdam) Resolutie Lengte Stap
FMI Hirlam 07:00, 13:00, 19:00, 01:00 7.5 km 49h 1h
EWN WRFDA 05:30, 11:30, 17:30, 23:30 12 km 73h 1h
DWD ICON 06:00, 12:00, 18:00, 00:00 7 km 75h 1h
GFS 02:15, 08:15, 14:15, 20:15 25 km 237h 3h
30+ mm
25-30 mm
20-25 mm
15-20 mm
10-15 mm
6-10 mm
4-6 mm
2-4 mm
1-2 mm
0.5-1 mm
0.2-0.5 mm
0.1-0.2 mm
30+ mm
25-30 mm
20-25 mm
15-20 mm
10-15 mm
6-10 mm
4-6 mm
2-4 mm
1-2 mm
0.5-1 mm
0.2-0.5 mm
0.1-0.2 mm
Sneeuwval
Natte sneeuw
Hagel
Vorst
30+ mm
25-30 mm
20-25 mm
15-20 mm
10-15 mm
6-10 mm
4-6 mm
2-4 mm
1-2 mm
0.5-1 mm
0.2-0.5 mm
0.1-0.2 mm
Sneeuwval
Natte sneeuw
Hagel
Vorst
Onweer
50 mm
40 mm
30 mm
26 mm
22 mm
18 mm
14 mm
10 mm
9 mm
8 mm
7 mm
6 mm
5 mm
4.5 mm
4 mm
3.5 mm
3 mm
2.5 mm
2 mm
1.5 mm
1 mm
0.8 mm
0.6 mm
0.4 mm
0.2 mm
0.05 mm
35°
30°
25°
20°
15°
10°
-5°
-10°
-15°
-20°
-25°
-30°
-35°
33> m/s
29 m/s
25 m/s
21 m/s
17 m/s
14 m/s
11 m/s
8 m/s
5 m/s
3 m/s
0 m/s
2600 J/kg
2400 J/kg
2200 J/kg
2000 J/kg
1800 J/kg
1600 J/kg
1400 J/kg
1200 J/kg
1000 J/kg
800 J/kg
600 J/kg
400 J/kg
200 J/kg
70 dBZ
65 dBZ
60 dBZ
55 dBZ
50 dBZ
45 dBZ
40 dBZ
35 dBZ
30 dBZ
25 dBZ
20 dBZ
15 dBZ
10 dBZ
5 dBZ
-1 K
-2 K
-3 K
-4 K
-5 K
-6 K
-7 K
-8 K
-9 K
950 m²/s²
900 m²/s²
850 m²/s²
800 m²/s²
750 m²/s²
700 m²/s²
650 m²/s²
600 m²/s²
550 m²/s²
500 m²/s²
450 m²/s²
400 m²/s²
350 m²/s²
300 m²/s²
250 m²/s²
200 m²/s²
150 m²/s²
100 m²/s²
46 m/s
44 m/s
42 m/s
40 m/s
38 m/s
36 m/s
34 m/s
32 m/s
30 m/s
28 m/s
26 m/s
24 m/s
22 m/s
20 m/s
16 m/s
12 m/s
8 m/s
4 m/s
30 m/s
28 m/s
26 m/s
24 m/s
22 m/s
20 m/s
18 m/s
16 m/s
14 m/s
12 m/s
10 m/s
8 m/s
6 m/s
4 m/s
2 m/s
3.0
2.8
2.6
2.4
2.2
2.0
1.8
1.6
1.4
1.2
1.0
0.8
0.6
0.4
0.2
15
14
13
12
11
10
9
8
7
6
5
4
3
2
1
90%
80%
70%
60%
50%
40%
30%
20%
10%
42
40
38
36
34
32
30
28
26
24
22
20
18
16
14
12
90+ cm
80-90 cm
70-80 cm
60-70 cm
50-60 cm
40-50 cm
30-40 cm
20-30 cm
10-20 cm
1-10 cm
Sneeuwval
Natte sneeuw
Regen
>120 mm
115 mm
110 mm
105 mm
100 mm
95 mm
90 mm
85 mm
80 mm
75 mm
70 mm
65 mm
60 mm
55 mm
50 mm
45 mm
45 mm
40 mm
35 mm
30 mm
25 mm
20 mm
15 mm
10 mm
5 mm
0.1 mm
960 hPa
880 hPa
800 hPa
720 hPa
640 hPa
560 hPa
584 gpdm
568 gpdm
552 gpdm
536 gpdm
520 gpdm
504 gpdm
488 gpdm
Extreem zwaar Noodweer Kans op onweer
15% 15% 5% 50% 15%

Dag




Kaart






35°
30°
25°
20°
15°
10°